DMSP 5D-2 F13 DEB, 40605

Orbit data source: Space-Track

DMSP 5D-2 F13 DEB, 40605 is space debris in SSO originally from a launch on Fri, 24 Mar 1995 UTC launched from the Air Force Western Test Range (AFWTR). Debris objects in space refer to the collection of defunct objects orbiting the Earth. Examples of debris include non-operational satellites, rocket bodies, and fragments generated from explosions, collisions, or faulty payload assembly.

Loading next visibility...
Identifier
40605, 1995-015FC
Orbit
SSO
Country
Flag of USUS
Related business
Manufacturer
Unknown
Mission
Spacecraft
Bus & Motor
Unknown
Mass
Unknown
Launch date (UTC)
1995-03-24 (31 years ago)
Launch vehicle
Unknown
Launch site
Air Force Western Test Range (AFWTR)
Object type
Payload
Rocket body
Debris
Shape & HBR
Unknown shape, 0.1 m
Radar Cross Section
Small (<0.1 m²)

Expand to show TLE details & history
Last TLE update: 2 days ago

TLE from 2 days ago
0 DMSP 5D-2 F13 DEB
1 40605U 95015FC  25296.40410020  .00015583  00000-0  36087-2 0  9998
2 40605  98.6363 350.6563 0021492 231.6966 128.2298 14.55032322548030
Epoch: 2025-10-23T09:41Z
TLE epoch observation values (Epoch: 2025-10-23T09:41:54.257Z)
Latitude
0.00002°
Longitude
173.11638°
Altitude
721.672 km
Speed
7.49 km/s
True Right ascension
23h 22m 37s
True Declination
0° 00' 00"
Sunlit
Object was in full shadow at epoch
Visualization orbit readout
Latitude
Unknown
Longitude
Unknown
Altitude
Unknown
Speed
Unknown
Apparent Right ascension
Unknown
Apparent Declination
Unknown
Sunlit
N/A
Visualization observer readout
Local Sidereal Time
04:03:07
Azimuth
Unknown
Elevation
Unknown
Doppler factor
Unknown
Orbital elements
Apogee altitude
721.594 km
Perigee altitude
691.142 km
Semi-major axis
7,084.505 km
Eccentricity
0.00215
Inclination
98.6363°
RAAN
350.6563°
Arg. of periapsis
231.6966°
True anomaly
128.42294°
Mean anomaly
128.2298°
Eccentric anomaly
128.3264°
Mean motion
3.63981 °/min
Orbital period
98.91 mins
BSTAR
0.0036087
Loading maneuver chart data...
Computing Atmospheric mass density...

Documentation

Showing up to 5 results
|